Snowfall_Accumulation
0.0 0.0 0.0 0.0 0.0 0.0 0.0 0.0 0.0 0.0 0.0 0.0 0.0 0.0 0.0 0.0 0.0 0.0 0.0 0.0 0.0 0.0 0.0 0.0 0.0 0.0 0.0 0.0 0.0 0.0 0.0 0.0 0.0 0.0 0.0 0.0 0.0 0.0 0.0 0.0 0.0 0.0 0.0
0.0 0.0 0.0 0.0 0.0 0.0 0.0 0.0 0.0 0.0 0.0 0.0 0.0 0.0 0.0 0.0 0.0 0.0 0.0 0.0 0.0 0.0 0.0 0.0 0.0 0.0 0.0 0.0 0.0 0.0 0.0 0.0 0.0 0.0 0.0 0.0 0.0 0.0 0.0 0.0 0.0 0.0 0.0
0.0 0.0 0.0 0.0 0.0 0.0 0.0 0.0 0.0 0.0 0.0 0.0 0.0 0.0 0.0 0.0 0.0 0.0 0.0 0.0 0.0 0.0 0.0 0.0 0.0 0.0 0.0 0.0 0.0 0.0 0.0 0.0 0.0 0.0 0.0 0.0 0.1 0.0 0.1 0.1 0.0 0.1 0.0
0.0 0.0 0.0 0.0 0.0 0.0 0.0 0.0 0.0 0.0 0.0 0.0 0.0 0.0 0.0 0.0 0.0 0.0 0.0 0.0 0.0 0.0 0.0 0.0 0.0 0.0 0.0 0.0 0.0 0.0 0.0 0.0 0.0 0.1 0.1 0.2 0.2 0.5 0.3 0.7 1.7 1.3 1.3
0.0 0.0 0.0 0.0 0.0 0.0 0.0 0.0 0.0 0.0 0.0 0.0 0.0 0.0 0.0 0.0 0.0 0.0 0.0 0.0 0.0 0.0 0.0 0.0 0.0 0.0 nan nan 0.0 0.0 0.0 0.0 0.2 0.3 0.3 0.4 1.0 2.3 1.6 1.3 2.0 3.2 3.9
0.1 0.0 0.0 0.0 0.0 0.0 0.0 0.0 0.0 0.0 0.0 0.0 0.0 0.0 0.0 0.0 nan nan 0.0 0.0 0.0 0.0 0.0 0.0 0.0 0.0 0.0 nan nan nan nan 0.0 0.1 0.4 0.3 0.3 0.2 0.6 1.2 2.5 2.6 7.3 7.3
0.0 0.6 0.4 0.6 0.5 0.3 0.4 0.1 0.0 0.4 0.4 0.2 0.0 0.0 0.0 0.0 nan nan nan 0.0 0.0 0.0 0.0 0.0 0.0 0.0 0.1 0.0 nan nan nan nan nan 0.0 0.1 0.2 0.3 0.2 0.3 2.7 2.0 2.5 2.5
0.0 0.1 0.1 0.1 0.8 1.1 1.8 0.3 0.1 0.1 0.0 0.0 0.0 0.0 0.0 0.0 nan nan nan 0.0 0.0 0.0 0.0 0.0 0.0 0.0 0.0 0.1 0.1 0.1 0.1 0.1 0.1 0.0 0.1 0.1 0.0 0.0 0.0 0.1 0.4 2.1 4.6
0.2 0.1 0.2 0.2 0.4 0.1 0.2 0.1 0.1 0.1 0.1 0.1 0.1 0.1 0.1 0.1 nan nan 0.0 0.0 0.0 0.1 0.0 0.0 0.0 0.0 nan nan 0.1 0.3 0.8 0.3 nan nan nan nan nan nan nan 1.4 8.3 11.0 10.0
0.4 0.3 0.2 0.1 0.2 0.2 0.1 0.2 0.2 0.1 0.2 0.7 0.2 0.2 0.0 0.1 nan nan nan 0.6 0.2 0.6 0.1 0.1 0.5 0.1 nan nan 0.1 0.7 2.9 1.0 0.9 1.3 0.5 0.1 nan nan nan 0.1 1.6 8.5 8.9
0.5 0.5 0.4 0.2 0.3 0.1 0.2 0.2 0.3 0.4 0.3 0.6 0.9 0.5 0.5 0.1 0.1 nan nan 0.3 0.8 1.5 1.5 1.5 0.9 nan nan nan nan 0.6 1.1 0.9 2.4 2.6 2.8 2.8 2.1 1.7 1.9 1.0 0.5 1.7 8.3
1.1 1.1 1.2 1.1 0.6 0.4 1.1 0.9 1.4 1.0 1.3 1.3 1.5 1.5 1.5 0.5 nan nan nan nan nan 2.3 1.6 1.6 1.1 nan nan nan 0.6 nan nan 2.0 4.9 6.5 7.4 7.1 6.2 6.6 5.7 4.4 2.4 2.1 2.9
3.0 3.9 3.1 2.7 2.0 1.5 1.8 1.7 2.7 1.8 2.6 1.6 2.7 2.5 2.0 2.1 1.5 nan nan nan nan 1.8 1.4 1.4 nan nan nan nan nan nan 1.8 5.3 7.1 11.9 9.8 7.1 6.7 7.3 6.4 7.2 5.7 6.2 5.7
4.9 3.5 2.5 2.7 2.0 2.0 2.2 2.1 3.0 3.2 3.0 3.3 3.9 3.8 2.8 3.4 2.6 2.0 2.1 1.1 1.8 2.1 nan 1.8 nan 1.9 nan nan 3.0 3.8 6.7 7.8 10.0 11.4 10.9 8.0 7.2 9.9 11.6 8.9 11.9 11.8 15.6
4.8 3.7 3.4 3.4 3.0 2.5 2.2 2.7 2.9 1.5 2.9 5.7 6.3 4.5 6.9 7.6 5.4 2.0 3.9 5.2 4.4 4.3 5.1 7.7 8.7 7.7 8.7 8.5 10.2 10.0 10.1 11.3 13.2 12.6 14.3 13.6 13.7 13.3 14.1 12.2 13.2 15.9 17.7
3.7 4.9 3.7 3.8 3.2 3.1 3.6 3.9 nan nan nan nan nan 4.8 6.4 nan nan nan nan nan nan nan 15.1 20.3 14.3 13.4 12.8 13.3 15.3 15.1 14.8 12.5 14.1 15.3 16.3 15.7 16.5 15.8 16.3 17.4 16.6 18.5 20.6
6.1 5.1 6.1 5.2 5.8 6.9 7.9 7.5 8.7 6.2 nan nan nan nan nan nan nan nan nan nan nan nan 25.7 19.9 20.0 16.8 16.9 15.7 16.9 16.7 16.7 15.1 14.0 17.0 16.1 17.2 18.0 19.3 19.3 19.0 17.0 16.4 20.7
8.2 3.1 8.9 9.0 8.6 10.1 10.7 10.8 10.9 11.2 12.0 10.6 nan nan nan nan nan nan nan nan 27.4 nan 21.1 25.6 24.8 20.4 18.6 19.4 18.1 18.2 17.9 17.5 16.6 17.2 17.7 20.9 22.6 23.6 22.7 21.0 18.7 21.4 20.4
10.9 10.1 10.9 11.4 11.7 11.9 12.5 11.6 12.0 12.3 13.0 15.2 14.5 15.5 8.6 nan nan nan nan 21.1 28.5 27.3 27.5 27.9 24.4 24.3 22.4 22.6 22.0 22.6 20.5 21.0 20.7 23.8 23.4 24.2 23.1 23.5 23.3 19.1 17.3 11.1 12.1
13.8 6.0 10.7 15.4 14.7 13.8 12.1 14.0 13.6 13.9 15.6 17.5 18.3 18.4 22.7 19.8 27.3 29.2 25.8 29.5 28.5 27.3 25.0 26.5 26.6 27.8 28.1 26.5 26.3 25.2 25.1 25.2 23.5 24.2 24.3 23.1 22.0 23.0 18.7 21.8 20.6 18.8 19.8
17.6 16.7 4.7 16.9 19.2 19.9 20.4 18.8 17.6 20.0 19.3 20.1 18.4 17.8 nan 21.0 23.0 24.6 27.1 26.9 28.3 29.4 26.3 27.4 28.0 31.7 32.1 33.7 30.1 29.2 28.0 21.4 24.3 25.6 26.4 26.1 25.7 29.0 20.6 16.3 19.4 20.4 20.1
18.3 19.6 20.7 22.0 19.1 20.1 21.2 17.8 18.8 18.6 18.1 17.3 16.5 17.0 nan 18.8 20.3 20.9 21.8 25.3 28.2 28.2 30.5 33.5 32.5 33.7 31.2 29.4 28.0 26.5 23.7 25.8 26.9 26.4 23.6 23.8 26.0 23.5 23.0 18.1 18.3 17.0 20.2
17.0 16.2 17.3 18.3 18.2 8.4 21.0 22.6 21.2 20.3 19.2 19.4 17.8 18.8 20.4 23.9 21.5 20.9 26.0 27.6 24.0 22.7 23.8 24.8 23.4 23.0 21.6 23.6 21.6 21.1 22.5 24.3 24.6 29.5 23.2 23.3 23.0 24.7 22.7 20.9 19.1 20.6 19.5
18.1 18.4 17.8 19.5 18.6 18.4 20.7 21.7 20.0 7.6 19.0 19.8 25.5 22.3 15.2 17.9 22.1 18.6 18.6 21.1 18.0 25.9 20.4 21.3 18.7 18.4 19.3 25.7 30.0 29.4 30.9 31.9 31.5 29.6 27.5 21.6 21.2 17.8 19.5 21.1 17.4 16.6 15.4
17.9 17.4 17.8 17.3 21.4 17.9 17.2 19.3 14.4 17.9 20.1 16.4 19.2 14.8 15.7 15.1 16.4 20.5 19.3 16.3 17.9 16.7 14.7 14.7 14.9 15.1 15.5 16.1 20.9 25.0 24.2 4.7 17.4 5.1 25.6 19.8 22.2 22.4 22.3 19.5 18.0 16.1 14.4
14.1 14.4 14.9 15.3 15.3 16.2 16.5 16.1 16.4 13.7 16.5 17.3 16.6 16.8 15.0 15.0 14.9 16.9 16.1 16.2 13.7 14.1 14.3 15.1 14.6 13.1 12.6 14.2 15.1 6.8 4.4 3.9 21.2 4.6 23.2 19.8 21.5 20.4 20.6 20.9 19.8 18.8 15.5
Water_Equivalent
0.00 0.00 0.00 0.00 0.00 0.00 0.00 0.00 0.00 0.00 0.00 0.00 0.00 0.00 0.00 0.00 0.00 0.00 0.00 0.00 0.00 0.00 0.00 0.00 0.00 0.00 0.00 0.00 0.00 0.00 0.00 0.00 0.00 0.00 0.00 0.00 0.00 0.00 0.00 0.00 0.00 0.00 0.00
0.00 0.00 0.00 0.00 0.00 0.00 0.00 0.00 0.00 0.00 0.00 0.00 0.00 0.00 0.00 0.00 0.00 0.00 0.00 0.00 0.00 0.00 0.00 0.00 0.00 0.00 0.00 0.00 0.00 0.00 0.00 0.00 0.00 0.00 0.00 0.02 0.00 0.00 0.00 0.00 0.00 0.00 0.00
0.00 0.00 0.00 0.00 0.00 0.00 0.00 0.00 0.00 0.00 0.00 0.00 0.00 0.00 0.00 0.00 0.00 0.00 0.00 0.00 0.00 0.00 0.00 0.00 0.00 0.00 0.00 0.00 0.00 0.00 0.00 0.00 0.00 0.00 0.02 0.02 0.03 0.02 0.02 0.03 0.00 0.02 0.00
0.00 0.00 0.00 0.00 0.00 0.00 0.00 0.00 0.00 0.00 0.00 0.00 0.00 0.00 0.00 0.00 0.00 0.00 0.00 0.00 0.00 0.00 0.00 0.00 0.00 0.00 0.00 0.00 0.00 0.00 0.00 0.00 0.01 0.03 0.06 0.07 0.09 0.21 0.12 0.23 0.41 0.35 0.38
0.00 0.00 0.00 0.00 0.00 0.00 0.00 0.00 0.00 0.00 0.00 0.00 0.00 0.00 0.00 0.00 0.00 0.00 0.00 0.00 0.00 0.00 0.00 0.00 0.00 0.00 nan nan 0.00 0.00 0.00 0.02 0.09 0.10 0.12 0.15 0.27 0.47 0.41 0.37 0.56 0.77 0.94
0.04 0.00 0.00 0.00 0.00 0.00 0.01 0.00 0.00 0.00 0.00 0.00 0.00 0.00 0.00 0.00 nan nan 0.00 0.00 0.00 0.00 0.00 0.00 0.00 0.00 0.00 nan nan nan nan 0.00 0.02 0.17 0.13 0.10 0.04 0.22 0.38 0.66 0.77 1.58 1.53
0.00 0.24 0.14 0.23 0.18 0.08 0.14 0.02 0.01 0.15 0.18 0.07 0.00 0.00 0.00 0.00 nan nan nan 0.01 0.01 0.00 0.00 0.00 0.00 0.00 0.02 0.00 nan nan nan nan nan 0.01 0.03 0.06 0.08 0.04 0.09 0.74 0.60 0.74 0.67
0.00 0.02 0.03 0.03 0.27 0.41 0.68 0.09 0.02 0.02 0.01 0.01 0.01 0.00 0.00 0.00 nan nan nan 0.00 0.00 0.00 0.00 0.01 0.02 0.02 0.01 0.02 0.02 0.03 0.03 0.03 0.02 0.01 0.02 0.02 0.02 0.01 0.01 0.03 0.12 0.51 0.96
0.06 0.04 0.05 0.06 0.09 0.04 0.05 0.03 0.03 0.03 0.03 0.02 0.02 0.03 0.03 0.03 nan nan 0.00 0.01 0.02 0.02 0.02 0.01 0.01 0.02 nan nan 0.04 0.12 0.29 0.10 nan nan nan nan nan nan nan 0.50 2.32 2.75 1.87
0.08 0.06 0.04 0.03 0.05 0.06 0.04 0.05 0.06 0.05 0.05 0.23 0.05 0.06 0.02 0.05 nan nan nan 0.22 0.07 0.23 0.04 0.03 0.17 0.02 nan nan 0.05 0.25 0.88 0.29 0.32 0.52 0.19 0.04 nan nan nan 0.03 0.50 2.21 1.64
0.11 0.10 0.09 0.06 0.08 0.04 0.06 0.06 0.09 0.12 0.09 0.18 0.26 0.15 0.16 0.05 0.03 nan nan 0.10 0.31 0.54 0.55 0.50 0.34 nan nan nan nan 0.23 0.37 0.29 0.86 0.84 0.82 0.83 0.63 0.49 0.53 0.32 0.15 0.51 1.57
0.18 0.20 0.23 0.28 0.17 0.12 0.35 0.24 0.43 0.30 0.38 0.36 0.42 0.39 0.42 0.14 nan nan nan nan nan 0.87 0.51 0.52 0.40 nan nan nan 0.23 nan nan 0.64 1.48 1.78 1.62 1.42 1.19 1.19 1.08 0.84 0.47 0.45 0.54
0.51 0.73 0.67 0.59 0.51 0.45 0.60 0.45 0.75 0.52 0.73 0.37 0.64 0.60 0.46 0.46 0.45 nan nan nan nan 0.63 0.48 0.45 nan nan nan nan nan nan 0.60 1.30 1.64 2.09 1.56 1.10 1.04 1.13 0.93 1.03 0.80 0.89 0.84
0.94 0.54 0.42 0.53 0.42 0.45 0.59 0.63 0.92 0.86 0.75 0.82 0.92 0.85 0.60 0.64 0.60 0.54 0.68 0.45 0.59 0.73 nan 0.62 nan 0.56 nan nan 0.80 0.87 1.23 1.41 1.54 1.62 1.44 1.08 1.08 1.47 1.62 1.26 1.53 1.53 2.06
0.70 0.40 0.47 0.63 0.63 0.41 0.36 0.64 0.64 0.33 0.78 1.47 1.70 1.18 1.50 1.52 1.16 0.53 1.11 1.46 1.36 1.36 1.50 1.95 1.74 1.35 1.38 1.34 1.64 1.59 1.57 1.71 1.87 1.83 1.93 1.76 1.75 1.76 1.77 1.63 1.73 2.05 2.19
0.43 0.60 0.55 0.56 0.50 0.47 0.56 0.63 nan nan nan nan nan 1.19 1.57 nan nan nan nan nan nan nan 3.16 3.26 1.96 1.82 1.63 1.68 1.90 1.83 1.82 1.72 1.83 2.00 2.12 2.03 2.07 1.93 1.93 2.12 2.05 2.23 2.34
0.82 0.55 0.68 0.63 0.69 0.83 0.95 1.07 1.17 1.03 nan nan nan nan nan nan nan nan nan nan nan nan 4.82 2.96 2.65 2.11 2.06 1.86 2.01 1.97 1.89 1.75 1.57 2.02 1.91 2.03 2.14 2.31 2.34 2.24 1.97 1.88 2.42
0.94 1.02 1.03 1.00 1.00 1.12 1.20 1.27 1.29 1.40 1.55 1.38 nan nan nan nan nan nan nan nan 4.49 nan 3.76 3.89 3.41 2.90 2.46 2.27 2.03 1.96 1.91 1.91 1.81 1.89 1.98 2.48 2.77 2.95 2.76 2.57 2.19 2.56 2.40
1.16 1.06 1.17 1.24 1.28 1.32 1.40 1.28 1.31 1.33 1.42 1.70 1.72 1.96 1.64 nan nan nan nan 3.25 4.08 3.62 3.60 3.68 3.11 2.91 2.53 2.60 2.48 2.66 2.25 2.31 2.25 2.82 2.79 3.01 2.84 2.95 2.89 2.23 1.91 1.72 1.80
1.42 1.48 1.42 1.68 1.53 1.43 1.21 1.43 1.37 1.41 1.58 1.84 1.98 1.98 2.80 2.78 3.69 3.84 3.23 4.10 3.87 3.49 3.13 3.29 3.33 3.63 3.63 3.34 3.28 3.05 3.02 3.04 2.72 2.86 2.86 2.74 2.61 2.81 2.01 2.66 2.40 2.03 2.25
1.88 1.71 1.56 1.69 2.01 2.10 2.18 1.89 1.70 2.07 1.96 2.11 1.87 1.92 nan 2.41 2.58 2.83 3.27 3.10 3.51 3.73 3.09 3.35 3.46 4.29 4.41 4.82 4.02 3.81 3.52 2.29 2.80 3.06 3.25 3.19 3.11 3.76 2.37 1.62 2.24 2.43 2.37
1.93 2.10 2.20 2.33 1.85 1.96 2.17 1.67 1.80 1.78 1.67 1.54 1.39 1.57 nan 1.81 2.00 2.07 2.19 2.85 3.36 3.34 3.77 4.36 4.23 4.60 4.11 3.82 3.47 3.22 2.67 3.13 3.40 3.19 2.60 2.69 3.16 2.76 2.75 1.92 2.01 1.79 2.38
1.61 1.44 1.58 1.65 1.65 1.69 1.98 2.26 2.02 1.92 1.74 1.83 1.64 1.65 1.87 2.42 2.03 1.92 2.81 3.10 2.47 2.30 2.59 2.76 2.58 2.52 2.35 2.73 2.42 2.36 2.53 2.85 2.95 3.97 2.63 2.72 2.63 3.06 2.77 2.46 2.19 2.43 2.31
1.59 1.64 1.57 1.94 1.77 1.63 1.93 2.05 1.78 1.72 1.74 1.86 2.84 2.30 1.33 1.71 2.46 1.80 1.88 2.27 1.83 3.25 2.26 2.43 1.98 1.94 2.16 3.38 4.36 4.27 4.64 4.90 4.67 4.24 3.76 2.46 2.41 2.15 2.12 2.52 1.97 1.94 1.61
1.70 1.55 1.62 1.53 2.22 1.71 1.60 1.92 1.28 1.80 2.15 1.64 2.07 1.43 1.48 1.38 1.58 2.33 2.14 1.70 1.95 1.79 1.51 1.51 1.57 1.63 1.69 1.80 2.60 3.43 3.67 1.56 2.73 1.68 3.25 2.18 2.63 2.67 2.56 2.18 2.02 1.70 1.50
1.26 1.32 1.38 1.43 1.42 1.57 1.66 1.61 1.67 1.29 1.70 1.83 1.70 1.73 1.46 1.46 1.47 1.84 1.69 1.71 1.35 1.42 1.49 1.63 1.60 1.39 1.32 1.53 1.65 1.75 1.44 1.29 2.90 1.50 2.69 2.11 2.40 2.17 2.14 2.20 2.03 1.94 1.55
SL_Ratio
nan nan nan nan nan nan nan nan nan nan nan nan nan nan nan nan nan nan nan nan nan nan nan nan nan nan nan nan nan nan nan nan nan nan nan nan nan nan nan nan nan nan nan
nan nan nan nan nan nan nan nan nan nan nan nan nan nan nan nan nan nan nan nan nan nan nan nan nan nan nan nan nan nan nan nan nan nan nan 2.5 nan nan nan nan nan nan nan
nan nan nan nan nan nan nan nan nan nan nan nan nan nan nan nan nan nan nan nan nan nan nan nan nan nan nan nan nan nan nan nan nan nan 2.5 2.4 2.5 2.4 2.6 2.5 0.0 2.4 2.5
nan nan nan nan nan nan nan nan nan nan nan nan nan nan nan nan nan nan nan nan nan nan nan nan nan nan nan nan nan nan nan 2.5 2.5 2.6 2.5 2.5 2.5 2.5 2.5 3.2 4.1 3.7 3.5
nan nan nan nan nan nan nan nan nan nan nan nan nan nan nan nan nan nan nan nan nan nan nan nan nan nan nan nan 5.0 nan 3.3 2.5 2.5 2.5 2.5 2.5 3.8 4.8 3.8 3.4 3.7 4.1 4.1
3.0 4.2 nan nan nan 5.0 4.3 nan nan 0.0 nan nan nan nan nan nan nan nan nan nan nan nan nan nan nan nan nan nan nan nan nan 3.8 3.3 2.5 2.5 2.6 3.8 3.0 3.1 3.8 3.4 4.6 4.8
nan 2.7 3.0 2.8 2.8 3.6 2.7 2.9 2.2 2.5 2.5 2.5 2.5 nan nan nan nan nan nan 2.5 2.5 nan nan 5.0 2.0 nan 2.5 2.9 nan nan nan nan nan 3.0 2.7 2.6 3.3 3.8 3.6 3.6 3.4 3.3 3.7
3.0 2.5 2.5 2.4 2.8 2.6 2.7 3.0 2.8 2.7 2.6 2.8 2.9 0.0 2.5 nan nan nan nan nan nan 2.5 nan 2.5 2.4 2.5 2.6 3.4 3.5 3.3 2.5 2.5 2.5 2.4 2.4 2.4 2.5 2.9 3.0 3.4 3.5 4.1 4.8
3.4 2.9 3.2 3.4 4.4 3.4 3.6 3.2 3.7 3.2 3.1 2.6 2.4 2.5 2.5 2.4 nan nan nan 2.6 2.5 2.5 2.4 2.6 2.5 2.7 nan nan 2.8 2.6 2.7 2.5 nan nan nan nan nan nan nan 2.8 3.6 4.0 5.4
5.2 5.0 4.5 3.4 3.8 4.3 3.6 3.4 3.4 3.2 3.3 3.0 3.1 2.8 2.5 2.5 nan nan nan 2.5 2.5 2.5 2.5 2.5 3.0 2.8 nan nan 2.8 2.8 3.3 3.4 2.9 2.6 2.6 2.5 nan nan nan 2.9 3.2 3.8 5.4
5.0 4.9 4.3 3.9 3.6 3.3 3.3 3.6 3.4 3.3 3.6 3.3 3.5 3.3 2.9 2.6 2.5 nan nan 2.5 2.5 2.8 2.8 3.0 2.6 nan nan nan nan 2.7 3.1 3.2 2.8 3.0 3.4 3.3 3.4 3.5 3.5 3.2 3.6 3.4 5.3
6.0 5.6 5.0 3.9 3.7 3.6 3.0 3.7 3.3 3.4 3.5 3.7 3.6 3.8 3.6 3.7 nan nan nan nan nan 2.6 3.1 3.1 2.8 nan nan nan 2.6 nan nan 3.1 3.3 3.6 4.6 5.0 5.2 5.6 5.3 5.2 5.0 4.7 5.4
6.0 5.3 4.6 4.6 3.9 3.4 3.0 3.8 3.6 3.4 3.6 4.2 4.1 4.1 4.3 4.5 3.4 nan nan nan nan 2.9 2.9 3.2 nan nan nan nan nan nan 3.0 4.1 4.3 5.7 6.3 6.5 6.4 6.5 6.9 7.0 7.1 6.9 6.8
5.3 6.4 6.0 5.2 4.8 4.5 3.7 3.4 3.3 3.7 4.0 4.0 4.2 4.5 4.6 5.3 4.3 3.7 3.1 2.5 3.0 2.9 nan 2.9 nan 3.4 nan nan 3.7 4.3 5.4 5.6 6.5 7.0 7.6 7.4 6.7 6.7 7.2 7.1 7.8 7.7 7.6
6.9 9.2 7.2 5.4 4.7 6.2 6.1 4.1 4.4 4.5 3.6 3.9 3.7 3.8 4.6 5.0 4.7 3.7 3.5 3.6 3.2 3.2 3.4 4.0 5.0 5.7 6.3 6.4 6.2 6.3 6.5 6.6 7.0 6.9 7.4 7.7 7.8 7.6 8.0 7.5 7.7 7.7 8.1
8.6 8.1 6.7 6.8 6.3 6.5 6.6 6.2 nan nan nan nan nan 4.0 4.1 nan nan nan nan nan nan nan 4.8 6.2 7.3 7.4 7.8 7.9 8.1 8.3 8.1 7.2 7.7 7.7 7.7 7.7 7.9 8.2 8.5 8.2 8.1 8.3 8.8
7.5 9.3 8.9 8.3 8.4 8.3 8.3 7.0 7.5 6.0 nan nan nan nan nan nan nan nan nan nan nan nan 5.3 6.7 7.6 7.9 8.2 8.4 8.4 8.5 8.8 8.6 9.0 8.4 8.4 8.5 8.4 8.3 8.2 8.5 8.6 8.7 8.5
8.7 3.0 8.7 9.0 8.6 9.0 8.9 8.5 8.5 8.0 7.8 7.7 nan nan nan nan nan nan nan nan 6.1 nan 5.6 6.6 7.3 7.0 7.6 8.5 8.9 9.3 9.3 9.1 9.2 9.1 8.9 8.4 8.2 8.0 8.2 8.2 8.5 8.4 8.5
9.4 9.6 9.3 9.2 9.1 9.0 8.9 9.1 9.2 9.3 9.1 8.9 8.5 7.9 5.2 nan nan nan nan 6.5 7.0 7.5 7.6 7.6 7.8 8.3 8.8 8.7 8.8 8.5 9.1 9.1 9.2 8.5 8.4 8.1 8.1 8.0 8.1 8.6 9.1 6.5 6.7
9.7 4.0 7.5 9.2 9.6 9.7 10.0 9.8 9.9 9.8 9.9 9.5 9.2 9.3 8.1 7.1 7.4 7.6 8.0 7.2 7.4 7.8 8.0 8.1 8.0 7.7 7.7 7.9 8.0 8.3 8.3 8.3 8.6 8.4 8.5 8.4 8.4 8.2 9.3 8.2 8.6 9.3 8.8
9.3 9.8 3.0 10.0 9.5 9.5 9.4 9.9 10.3 9.7 9.9 9.5 9.9 9.3 nan 8.7 8.9 8.7 8.3 8.7 8.1 7.9 8.5 8.2 8.1 7.4 7.3 7.0 7.5 7.7 8.0 9.3 8.7 8.4 8.1 8.2 8.2 7.7 8.7 10.0 8.7 8.4 8.5
9.5 9.4 9.4 9.4 10.4 10.2 9.8 10.7 10.4 10.5 10.8 11.2 11.9 10.8 nan 10.4 10.2 10.1 9.9 8.9 8.4 8.4 8.1 7.7 7.7 7.3 7.6 7.7 8.1 8.2 8.9 8.2 7.9 8.3 9.1 8.9 8.2 8.5 8.4 9.4 9.1 9.5 8.5
10.5 11.3 11.0 11.1 11.0 4.9 10.6 10.0 10.5 10.6 11.0 10.6 10.9 11.4 10.9 9.9 10.6 10.9 9.2 8.9 9.7 9.9 9.2 9.0 9.1 9.1 9.2 8.6 8.9 8.9 8.9 8.5 8.3 7.4 8.8 8.6 8.7 8.1 8.2 8.5 8.7 8.5 8.4
11.4 11.3 11.3 10.0 10.5 11.3 10.7 10.6 11.2 4.4 10.9 10.7 9.0 9.7 11.5 10.5 9.0 10.3 9.9 9.3 9.8 8.0 9.0 8.7 9.5 9.5 8.9 7.6 6.9 6.9 6.7 6.5 6.7 7.0 7.3 8.8 8.8 8.3 9.2 8.4 8.8 8.6 9.5
10.5 11.2 11.0 11.3 9.6 10.5 10.8 10.0 11.2 10.0 9.4 10.1 9.3 10.4 10.6 11.0 10.4 8.8 9.0 9.6 9.2 9.3 9.7 9.7 9.5 9.3 9.2 9.0 8.0 7.3 6.6 3.0 6.4 3.0 7.9 9.1 8.5 8.4 8.7 8.9 8.9 9.5 9.6
11.1 10.9 10.8 10.7 10.8 10.3 9.9 10.0 9.8 10.7 9.7 9.5 9.8 9.7 10.3 10.3 10.1 9.2 9.5 9.5 10.1 9.9 9.6 9.3 9.2 9.4 9.6 9.3 9.2 3.9 3.0 3.0 7.3 3.0 8.6 9.4 8.9 9.4 9.6 9.5 9.8 9.7 10.0